Palm Springs, CA

6:01 PM PDT on March 27, 2017 (GMT -0700)
Palm Springs International

Weather History for KPSP - November, 2011

Change the Weather History Date:

Friday, November 25, 2011

  Actual Average Record
Temperature  
Mean Temperature 62 °F 60 °F  
Max Temperature 79 °F 73 °F 93 °F (1933)
Min Temperature 44 °F 48 °F 32 °F (1952)
Degree Days  
Heating Degree Days 3 5  
Month to date heating degree days 108 61  
Since 1 July heating degree days 108 65  
Cooling Degree Days 0 1  
Month to date cooling degree days 14 73  
Year to date cooling degree days 4147 4135  
Growing Degree Days 12 (Base 50)    
Moisture  
Dew Point 39 °F    
Average Humidity 49    
Maximum Humidity 76    
Minimum Humidity 21    
Precipitation  
Precipitation 0.00 in 0.03 in 0.80 in (1985)
Month to date precipitation 0.42 0.41  
Year to date precipitation 2.81 4.74  
Since 1 July precipitation 1.34  
Snow  
Snow 0.00 in - - ()
Month to date snowfall 0.0  
Year to date snowfall 0.0  
Snow Depth 0.00 in    
Sea Level Pressure  
Sea Level Pressure 30.12 in    
Wind  
Wind Speed 3 mph (WNW)    
Max Wind Speed 10 mph    
Max Gust Speed 15 mph    
Visibility 10 miles    
Events      
T = Trace of Precipitation, MM = Missing Value Source: NWS Daily Summary

Daily Weather History Graph

Daily Weather History Graph

Search for Another Location

Airport or City:

Trip Planner

Search our weather history database for the weather conditions in past years. The results will help you decide how hot, cold, wet, or windy it might be!

Date:

Astronomy

Nov. 25, 2011 Rise Set
Actual Time 6:27 AM PST 4:38 PM PST
Civil Twilight 6:00 AM PST 5:05 PM PST
Nautical Twilight 5:29 AM PST 5:36 PM PST
Astronomical Twilight 4:59 AM PST 6:05 PM PST
Moon 6:57 AM PST (11/25) 5:13 PM PST (11/25)
Length of Visible Light 11h 05m
Length of Day
10h 11m
New Moon, 0% of the Moon is Illuminated
Nov 25
New Moon
Dec 2
First Quarter
Dec 10
Full
Dec 17
Last Quarter
Dec 24
New

Hourly Weather History & Observations

Time (PST) Temp. Windchill Dew Point Humidity Pressure Visibility Wind Dir Wind Speed Gust Speed Precip Events Conditions
12:53 AM 55.4 °F - 39.2 °F 54% 30.03 in 10.0 mi West 4.6 mph - N/A   Clear
1:53 AM 51.8 °F - 39.2 °F 62% 30.04 in 10.0 mi WSW 3.5 mph - N/A   Clear
2:53 AM 51.1 °F - 39.9 °F 66% 30.05 in 10.0 mi Calm Calm - N/A   Clear
4:53 AM 50.0 °F - 39.0 °F 66% 30.06 in 10.0 mi NW 3.5 mph - N/A   Clear
5:53 AM 46.9 °F - 39.9 °F 77% 30.08 in 10.0 mi Calm Calm - N/A   Clear
6:53 AM 46.0 °F 43.9 °F 39.0 °F 76% 30.11 in 10.0 mi WSW 4.6 mph - N/A   Clear
7:53 AM 55.0 °F - 37.9 °F 53% 30.12 in 10.0 mi North 4.6 mph - N/A   Clear
8:53 AM 60.1 °F - 37.0 °F 42% 30.14 in 10.0 mi Calm Calm - N/A   Clear
9:53 AM 64.9 °F - 37.9 °F 37% 30.15 in 10.0 mi SW 4.6 mph - N/A   Clear
11:53 AM 72.0 °F - 34.0 °F 25% 30.11 in 10.0 mi Calm Calm - N/A   Clear
12:53 PM 75.2 °F - 35.6 °F 24% 30.09 in 10.0 mi Calm Calm - N/A   Clear
1:53 PM 77.0 °F - 37.9 °F 24% 30.07 in 10.0 mi SE 4.6 mph - N/A   Clear
2:53 PM 79.0 °F - 35.1 °F 20% 30.07 in 10.0 mi ESE 4.6 mph - N/A   Clear
3:53 PM 75.0 °F - 39.9 °F 28% 30.09 in 10.0 mi East 6.9 mph - N/A   Clear
4:53 PM 69.1 °F - 41.0 °F 36% 30.11 in 10.0 mi East 4.6 mph - N/A   Clear
5:53 PM 66.0 °F - 42.1 °F 42% 30.14 in 10.0 mi Calm Calm - N/A   Clear
6:53 PM 64.4 °F - 42.8 °F 45% 30.16 in 10.0 mi NW 4.6 mph - N/A   Clear
7:53 PM 63.0 °F - 43.0 °F 48% 30.18 in 10.0 mi NW 6.9 mph - N/A   Clear
8:53 PM 60.1 °F - 37.9 °F 44% 30.20 in 10.0 mi Variable 4.6 mph - N/A   Clear
9:53 PM 59.0 °F - 39.0 °F 48% 30.21 in 10.0 mi NW 4.6 mph - N/A   Clear
10:53 PM 57.0 °F - 39.9 °F 53% 30.22 in 10.0 mi West 5.8 mph - N/A   Clear
11:53 PM 55.0 °F - 37.9 °F 53% 30.23 in 10.0 mi NNW 6.9 mph - N/A   Clear